Theta_e
310 311 315 316 316 317 317 316 315 315 315 315 315 316 317 319 318 317 317 318 318 318 319 317 316 309 310 314 308 309 314 320 319 317 319 319 320 321 321 324 322 323 324 324 323 326 325 326 329 333 334 333 330 329 332 332 332 332 330 330 333 333 333 334 333 332 327 324 323 326 324 323 323 323 322 323 324 325 325 324 324 324 326 329 330
310 310 315 316 316 317 317 316 316 313 313 315 314 315 318 319 317 318 318 318 318 317 315 313 313 311 308 309 309 309 312 315 315 315 317 321 320 320 323 323 320 320 324 323 325 324 322 323 324 326 331 330 331 330 329 331 331 331 332 329 331 331 330 333 334 331 326 322 321 320 319 320 322 322 322 323 323 323 325 325 325 324 325 325 326
309 309 314 315 316 316 316 316 315 314 313 314 314 315 318 318 317 319 317 316 318 316 311 312 314 315 312 313 311 312 316 317 314 317 321 319 317 320 321 319 318 317 318 321 323 324 323 323 322 324 325 328 328 329 330 331 330 329 329 329 329 331 330 333 334 331 326 326 324 321 316 317 316 320 322 323 323 323 323 323 325 324 324 325 325
307 308 311 314 315 315 315 316 315 315 314 314 315 315 319 319 318 318 317 316 316 317 315 315 317 317 316 316 316 314 314 322 317 318 317 316 315 316 320 317 316 316 319 319 318 319 320 322 323 323 322 324 326 325 325 324 324 328 329 329 329 326 327 327 332 332 328 325 319 320 318 315 311 314 317 321 324 323 323 323 323 324 324 323 325
306 308 310 313 314 314 315 316 317 316 315 314 316 316 320 319 320 318 317 317 315 320 316 317 318 316 315 316 317 316 316 313 310 309 313 317 316 315 315 315 316 316 316 316 319 317 318 319 320 320 320 321 323 323 324 326 326 327 330 329 329 327 326 326 329 331 329 329 323 319 316 315 313 315 317 317 322 321 322 322 323 323 323 323 321
303 308 310 313 314 314 314 315 316 316 317 316 318 319 320 319 321 319 318 316 315 316 317 317 318 315 314 313 312 312 310 307 306 308 310 309 311 315 317 317 317 316 316 316 317 320 317 318 318 319 318 319 321 321 321 321 323 324 325 329 329 329 327 325 325 328 330 330 328 328 322 317 316 320 318 311 320 322 322 323 323 323 323 322 321
306 307 310 311 313 314 315 315 316 317 318 319 319 319 320 320 322 320 318 316 316 315 317 318 317 317 316 316 315 313 309 309 309 312 311 312 313 312 315 318 315 315 316 317 316 318 318 318 317 318 319 318 320 319 319 319 321 321 325 324 325 327 327 324 324 325 327 328 328 328 328 326 326 322 318 318 314 317 321 321 322 323 323 322 322
304 308 310 311 312 314 315 316 316 318 318 319 319 319 319 320 322 320 319 318 315 316 316 317 317 319 317 316 315 314 309 310 311 311 312 316 313 314 315 315 317 317 316 315 315 315 317 315 315 315 316 316 320 318 317 318 320 322 323 324 325 325 326 326 325 325 324 324 326 327 326 326 327 326 324 321 317 314 316 320 322 322 322 322 322
305 307 309 311 311 313 316 316 317 319 319 319 319 320 320 320 321 321 319 318 314 316 316 317 319 317 313 312 311 313 312 312 313 314 311 314 312 314 313 313 315 314 314 315 316 316 317 315 316 316 316 316 319 318 316 317 317 317 317 317 317 320 324 326 326 325 325 325 323 323 324 324 325 324 324 325 320 317 316 316 317 321 322 321 322
305 309 310 311 312 312 315 317 318 318 320 321 320 320 320 320 320 321 318 318 314 315 316 315 317 316 311 311 311 310 313 313 312 311 311 310 311 311 312 312 313 313 314 314 314 314 314 315 314 314 314 316 318 315 315 315 316 316 317 317 317 317 320 323 324 325 326 326 326 325 322 322 322 322 322 322 323 322 317 316 315 316 317 320 323
305 308 311 312 313 313 314 314 316 318 319 320 319 319 320 320 320 320 319 318 315 315 315 314 315 314 312 312 312 309 312 311 310 309 310 309 310 309 311 312 314 314 316 315 313 313 313 317 315 314 315 316 316 314 314 315 315 315 316 317 316 316 317 319 321 323 325 325 325 325 324 322 321 320 320 322 322 320 318 318 319 319 318 318 321
306 307 310 312 312 313 313 313 314 317 318 319 319 319 319 320 320 320 319 318 316 316 314 314 314 314 313 313 312 311 311 310 310 307 311 309 310 310 310 311 310 312 312 312 313 314 314 313 316 315 314 312 313 314 314 315 315 315 315 316 317 317 318 319 319 320 322 325 325 327 327 326 324 323 323 323 322 321 320 318 318 319 319 320 323
305 307 308 311 311 312 312 313 314 316 317 319 320 319 320 319 319 319 319 317 316 315 313 313 313 313 313 313 312 313 311 310 310 308 311 309 309 308 309 309 309 310 310 310 312 312 312 311 311 312 312 312 313 313 314 314 314 314 314 314 314 315 316 316 316 317 321 323 324 326 326 326 326 326 326 324 322 321 320 318 319 321 319 320 324
305 308 308 311 312 312 313 313 314 316 317 319 320 320 320 320 319 319 319 318 317 315 313 312 313 312 312 313 312 314 311 311 310 311 311 311 311 309 310 309 308 308 308 308 310 311 312 313 313 312 312 311 312 311 311 312 313 313 313 313 313 314 315 315 315 316 317 320 324 324 325 326 327 328 327 326 323 320 319 318 317 319 321 319 322
307 308 308 311 312 312 312 314 314 316 317 319 320 321 321 320 319 319 319 317 316 315 314 312 313 312 313 314 313 314 312 312 311 312 312 311 311 311 311 309 308 308 308 309 312 311 311 312 312 311 311 310 310 310 313 311 311 312 312 313 314 314 314 315 315 315 316 316 318 322 324 325 326 327 327 327 327 324 323 322 320 316 316 317 318
304 305 307 311 312 312 312 313 314 316 317 319 321 322 321 320 320 320 320 318 317 315 315 314 313 313 313 313 313 314 314 313 312 312 312 311 311 309 309 308 308 308 309 309 310 310 310 310 311 310 310 310 310 310 310 310 310 310 311 312 311 316 315 314 314 314 314 315 316 318 322 324 325 326 327 327 327 326 325 324 323 320 316 313 314
304 303 307 309 310 311 312 312 313 315 316 320 321 322 322 321 320 320 320 319 317 316 314 315 314 313 313 313 313 312 312 311 311 309 310 311 311 309 308 309 308 308 309 311 310 310 309 309 309 309 309 310 309 310 310 309 309 309 310 309 309 311 312 313 314 313 313 315 316 317 319 322 324 325 326 327 326 326 325 325 324 322 320 316 313
302 304 308 310 311 311 311 312 314 315 318 320 322 323 322 322 321 320 320 319 318 317 315 315 314 313 312 312 312 312 311 311 310 310 309 310 309 309 308 308 308 308 310 311 309 309 310 314 309 308 308 309 309 309 309 309 308 308 308 309 309 310 311 312 313 314 314 315 315 316 317 319 323 324 325 325 326 326 325 324 325 325 323 319 316
301 304 308 309 310 311 312 312 315 317 319 321 322 322 322 321 321 321 320 320 318 318 316 315 314 314 314 313 312 311 311 311 310 310 310 309 309 308 308 307 307 308 309 308 307 307 307 307 307 307 307 308 308 308 308 308 308 307 308 308 309 310 309 309 310 311 313 314 314 314 315 317 321 323 324 324 324 325 325 324 324 325 325 322 320
302 301 307 310 310 312 312 313 316 317 320 321 322 322 321 321 320 320 320 319 318 316 315 314 314 314 314 312 312 312 311 310 309 309 309 308 309 308 308 307 307 308 306 307 306 306 306 305 306 306 306 306 306 306 306 306 306 306 306 307 308 308 308 308 309 310 312 313 313 313 314 315 317 320 323 324 324 324 324 325 325 324 324 323 322
303 302 304 310 312 312 313 313 316 319 320 321 321 321 322 321 320 319 319 317 317 316 315 314 314 313 313 312 311 310 310 310 309 309 308 308 307 308 307 307 307 306 306 306 306 305 305 305 305 305 304 303 303 304 304 304 304 305 306 306 306 307 307 308 308 308 310 311 312 312 313 314 315 316 319 322 324 324 324 324 324 324 323 324 322
303 303 304 306 311 313 313 314 315 316 318 319 320 321 321 320 320 319 318 317 317 316 315 314 313 313 312 312 311 310 310 309 308 308 308 308 307 307 306 306 305 305 305 305 305 304 305 305 304 304 303 303 303 303 303 303 304 304 304 306 306 305 306 307 307 307 308 310 310 309 310 311 313 314 315 318 321 323 324 323 323 323 323 323 325
302 303 304 305 307 312 313 313 312 313 315 317 319 320 320 320 319 319 318 317 318 317 315 314 313 312 312 312 311 310 310 309 308 307 308 308 307 306 307 305 305 305 305 305 305 305 305 304 303 303 302 301 302 302 302 303 302 302 302 303 304 304 304 304 305 306 307 308 308 308 308 309 311 311 313 314 317 320 323 323 323 324 323 323 324
302 302 302 303 303 306 310 311 310 310 312 314 319 320 320 320 319 318 317 317 317 316 314 313 312 312 311 311 310 310 309 308 307 307 307 307 307 306 307 306 306 305 305 305 305 305 304 303 303 302 301 301 302 302 302 302 302 302 302 303 303 303 303 303 304 304 306 307 307 307 308 309 310 309 310 312 314 315 318 320 321 323 323 323 324
301 301 302 302 303 303 305 305 306 308 311 316 319 319 319 319 318 317 317 316 316 316 314 313 312 311 310 310 310 310 309 308 307 307 307 307 307 306 306 306 305 304 305 304 304 305 303 303 303 302 301 301 301 301 301 301 302 302 302 303 303 303 303 304 304 304 306 305 305 306 308 308 308 308 308 309 310 312 314 317 319 320 321 323 323
301 301 302 302 302 304 305 305 308 313 315 316 317 317 318 317 316 316 315 314 314 315 313 312 311 311 310 309 309 309 308 308 307 307 307 307 307 306 305 305 305 304 303 304 303 302 303 302 301 301 301 300 300 300 301 301 301 301 302 302 303 303 303 303 303 304 304 304 305 305 306 306 307 307 307 309 310 311 312 313 315 318 319 319 321
296 299 301 302 302 302 303 304 307 312 313 315 314 314 314 314 313 312 313 313 312 314 312 311 310 310 309 309 309 308 308 307 307 307 307 306 306 305 305 305 305 304 303 302 302 301 301 301 300 300 300 301 301 301 301 301 301 302 302 302 302 302 302 303 303 304 304 304 305 305 305 306 306 307 307 308 308 309 311 311 313 314 316 317 317
296 295 298 302 302 302 301 301 303 307 308 312 312 312 313 312 312 311 312 312 313 313 311 310 309 309 309 309 308 308 307 307 307 306 306 306 305 304 304 304 304 302 301 301 301 300 299 300 300 299 300 301 300 300 301 301 302 302 301 301 301 301 302 302 302 302 303 302 303 304 304 306 307 307 307 307 308 308 309 309 310 311 312 314 315
295 295 295 296 300 302 302 302 304 306 306 308 310 311 310 312 312 312 312 312 312 312 310 309 308 308 308 308 308 308 307 307 306 306 305 304 304 302 302 302 302 302 303 301 301 300 299 298 298 298 298 299 300 300 301 301 300 300 300 300 300 301 301 301 301 302 301 301 301 301 302 303 306 307 303 303 304 306 308 307 307 307 307 308 310
295 295 296 296 298 300 302 302 302 304 306 307 307 308 309 310 312 311 311 312 311 310 310 308 308 307 308 308 308 308 307 306 305 304 303 302 301 301 301 300 300 300 299 300 299 299 297 297 296 296 296 298 298 299 301 297 297 297 297 297 298 298 298 298 299 299 300 301 301 300 302 304 303 302 301 300 299 299 301 304 306 306 306 305 306
297 297 298 298 299 301 302 302 302 301 303 305 306 307 307 308 310 310 312 311 311 310 308 307 307 307 308 308 307 306 305 304 303 302 301 301 301 301 300 300 299 299 299 299 298 295 295 296 295 295 295 296 297 298 296 294 294 295 296 296 295 296 296 296 297 297 297 298 299 300 300 302 302 302 302 299 298 297 297 297 298 299 302 304 304
296 297 298 298 298 300 301 302 304 304 304 305 307 308 308 310 309 310 311 312 309 308 307 306 306 306 306 305 304 304 303 302 302 301 300 301 300 299 299 298 297 298 297 297 295 294 294 295 295 295 294 294 295 297 294 294 294 294 295 296 295 295 295 295 296 296 296 297 297 298 299 300 301 301 301 302 301 299 298 297 297 297 297 297 297
296 297 298 298 299 299 301 303 305 305 306 307 308 306 308 310 309 310 311 310 309 308 306 305 305 305 304 303 303 302 302 301 301 301 300 300 299 298 297 296 296 296 296 294 293 294 294 294 294 293 293 294 294 295 294 294 294 293 293 295 295 295 295 295 295 295 295 296 296 297 297 299 300 301 303 301 300 301 299 298 298 299 299 299 297
297 298 299 299 300 301 302 303 305 306 306 307 308 307 309 309 310 310 310 309 309 307 305 304 304 304 303 302 302 301 300 299 299 298 298 297 297 295 295 295 296 296 293 292 293 293 293 293 293 293 293 293 294 295 294 294 293 293 292 293 295 294 294 294 294 294 295 295 295 295 295 296 297 298 299 299 299 299 300 300 301 302 304 304 300
297 298 298 299 299 300 301 302 303 304 305 306 307 306 307 308 308 309 309 309 309 307 304 303 302 302 302 301 301 299 298 297 297 296 296 295 295 294 295 295 294 293 291 291 291 292 292 293 292 292 292 293 295 294 293 293 293 292 292 292 294 295 294 294 294 294 294 294 295 295 295 295 296 296 298 298 298 298 298 299 299 299 300 300 301
298 299 300 300 301 302 303 304 306 306 308 308 307 307 307 307 308 308 308 308 308 304 303 302 301 301 301 299 298 296 296 296 296 296 295 295 294 294 295 294 293 292 291 291 292 292 291 290 291 291 291 292 293 293 292 292 292 291 292 293 293 293 293 292 293 293 294 294 294 294 295 295 296 297 297 295 296 297 297 297 297 297 298 299 300
300 301 301 302 303 303 304 305 307 307 308 306 305 306 306 306 306 307 307 307 305 303 302 301 301 300 299 298 297 296 296 295 295 295 294 294 293 293 292 292 291 290 290 291 291 291 291 290 291 291 291 291 291 292 292 292 292 292 292 293 292 292 292 292 292 293 293 293 294 294 294 295 295 296 296 293 293 294 296 296 296 296 297 297 298
301 302 303 303 304 305 305 305 305 305 305 306 306 306 304 304 304 305 304 305 303 302 301 301 300 299 299 298 297 295 295 295 294 294 294 293 292 292 291 291 290 289 290 291 290 289 289 290 290 290 291 291 291 293 292 292 292 291 292 292 292 291 291 291 291 292 293 293 294 296 297 295 295 296 294 293 292 294 295 296 296 296 295 295 296
301 302 302 303 303 305 306 305 305 304 305 305 306 306 305 304 303 303 303 302 301 301 301 300 299 298 297 296 296 295 294 294 294 294 294 292 292 292 291 291 290 289 289 289 291 290 289 290 290 291 295 293 291 292 292 291 291 291 292 291 290 289 288 289 289 289 290 291 292 294 295 295 295 295 293 292 292 294 296 296 296 296 295 295 296
302 303 302 302 304 304 303 302 302 301 303 305 305 304 303 302 302 302 301 299 299 299 298 297 296 296 296 296 295 296 296 295 294 292 292 292 294 291 290 290 289 290 289 289 289 288 288 289 290 290 291 291 290 290 291 291 291 291 291 291 290 288 288 288 288 289 289 289 291 291 293 292 291 291 291 291 292 292 294 296 296 295 295 295 297
301 302 301 303 304 303 303 304 303 305 306 305 305 304 302 302 301 301 300 298 298 297 298 297 296 296 296 296 296 295 295 293 293 293 293 294 292 291 290 288 288 288 288 287 287 287 288 289 289 290 290 290 291 290 291 291 291 291 290 290 289 289 289 288 288 288 288 288 289 290 292 292 291 291 291 291 291 291 292 295 295 295 295 296 296
302 302 303 303 301 302 303 305 305 305 305 305 305 303 302 301 301 300 299 299 298 298 297 297 297 297 296 296 295 295 295 296 294 293 292 292 291 290 289 289 287 287 287 286 286 287 287 288 288 289 290 290 291 293 290 291 290 290 290 290 289 289 290 289 288 288 288 288 289 290 291 292 292 291 291 291 291 291 291 294 295 293 293 292 294
300 302 304 302 301 302 304 305 306 307 306 306 306 302 301 300 299 298 299 298 298 297 297 297 297 296 296 295 294 294 295 298 295 293 291 290 290 289 288 287 286 286 287 286 286 286 286 287 287 288 288 289 289 290 291 290 290 290 290 289 289 289 289 289 288 287 287 288 289 290 292 292 291 291 291 291 291 291 291 293 292 292 292 291 292
301 303 304 301 302 303 303 304 304 306 306 306 304 302 300 298 296 298 297 297 297 297 296 296 295 295 295 294 295 294 293 292 292 291 290 288 288 288 287 288 286 287 286 285 285 286 285 286 286 287 288 288 288 289 290 290 290 289 289 289 288 288 288 288 289 288 288 289 289 290 290 290 290 291 291 291 291 291 292 291 291 291 291 291 294
299 301 303 304 302 302 303 304 304 304 305 305 303 301 297 296 296 297 297 297 297 297 296 295 295 293 293 293 293 292 291 291 291 291 290 288 288 286 286 286 286 286 285 284 285 285 285 286 286 286 286 287 288 289 289 290 289 289 289 289 288 288 288 288 287 288 289 289 289 289 289 289 289 289 290 290 290 290 290 290 290 290 292 293 293
300 300 302 303 304 303 303 302 303 305 304 304 301 300 297 296 297 297 297 297 297 296 295 294 293 292 292 293 292 291 292 292 292 290 290 288 288 287 285 285 286 285 284 284 283 284 285 285 284 285 286 286 288 288 289 289 289 289 289 288 288 288 288 289 289 288 288 288 288 288 288 288 288 289 289 290 290 291 291 290 290 291 293 293 294
300 301 301 301 301 302 302 302 302 302 302 303 300 299 298 297 297 298 298 297 296 295 294 293 292 292 293 293 291 290 290 291 290 289 289 290 287 285 285 285 284 284 283 283 285 285 284 283 284 285 286 287 287 288 288 288 288 288 288 288 288 288 288 288 288 288 288 288 288 288 288 288 288 288 288 289 289 290 291 292 292 293 293 293 294
302 302 302 301 301 301 301 301 300 299 302 300 298 298 298 298 298 298 297 296 295 294 293 293 293 292 292 292 291 289 290 290 290 289 287 287 287 286 285 284 284 283 282 282 282 282 282 284 284 285 285 286 286 287 287 287 287 287 287 287 287 287 287 287 286 287 287 288 288 288 288 289 289 289 289 288 289 290 290 290 292 294 294 294 294
300 300 300 301 300 300 300 300 299 299 301 299 298 298 298 298 297 297 296 294 293 292 293 293 292 292 291 290 291 289 290 289 290 289 288 285 284 284 286 283 283 283 284 282 280 283 283 283 284 285 285 285 285 285 287 288 287 287 286 286 286 286 287 287 287 287 287 287 287 287 286 287 288 287 287 288 288 289 289 291 292 294 296 296 296
300 300 300 299 299 302 302 299 299 299 299 298 298 298 298 298 297 296 295 294 292 293 293 292 292 291 290 290 291 290 291 290 289 288 288 290 289 289 287 285 284 289 289 289 288 283 285 285 285 286 287 286 285 287 288 287 287 287 287 287 287 287 286 287 287 287 287 285 285 285 286 286 286 287 288 288 288 289 289 290 291 292 293 295 295
299 300 299 298 298 299 300 299 301 298 298 298 298 298 299 299 298 297 296 295 293 292 292 291 291 291 290 291 291 291 289 291 290 289 288 287 286 286 289 289 288 289 289 289 288 288 288 288 287 286 287 288 288 287 287 287 287 287 287 287 287 286 286 286 286 286 285 285 285 285 285 286 287 288 288 288 289 289 289 290 291 291 292 292 292
Wind_Speed
12 16 16 16 15 13 13 12 11 11 11 11 9 8 7 8 7 5 5 4 3 2 1 1 1 1 2 3 4 3 3 3 3 3 4 4 4 4 4 3 4 3 1 3 3 3 2 1 1 2 2 4 6 5 1 4 4 2 1 1 1 3 4 5 4 0 2 4 2 1 3 5 6 6 6 5 5 6 6 5 6 7 8 8 9
9 10 11 13 12 12 12 11 12 13 10 11 11 11 7 7 7 6 4 4 4 4 4 3 2 4 4 3 3 5 6 4 1 1 1 2 2 3 2 3 5 4 2 2 0 1 1 2 2 1 1 2 6 8 7 4 5 5 1 3 2 2 3 2 3 1 3 2 2 4 4 4 3 4 6 5 6 6 6 5 5 5 7 8 7
12 14 12 14 14 13 12 12 11 13 13 12 11 10 9 8 7 5 5 4 3 4 5 5 3 3 3 3 3 3 1 3 3 1 2 1 1 1 2 4 4 4 4 3 2 1 0 1 2 2 1 1 4 4 5 6 5 6 5 4 4 2 3 2 3 5 5 2 2 1 2 1 3 2 3 5 7 7 6 6 6 6 7 7 8
13 15 14 16 16 15 12 12 12 11 11 9 10 11 9 8 8 7 7 4 4 4 5 5 5 5 5 4 2 3 2 1 2 1 1 3 1 3 2 4 4 3 4 4 3 3 4 3 3 5 4 2 2 2 3 4 5 5 6 5 3 3 1 1 2 7 5 4 2 4 3 2 3 5 5 6 7 7 7 8 6 7 6 6 7
13 14 13 13 13 13 14 13 11 11 11 11 11 11 8 11 10 9 8 5 5 5 7 6 5 4 3 3 3 3 3 2 1 1 1 0 2 4 1 2 2 2 3 4 3 3 4 3 4 4 4 4 3 2 1 3 4 4 5 5 5 4 4 3 3 4 4 4 1 1 0 2 3 3 2 6 3 3 6 8 7 8 8 7 7
11 18 17 18 17 13 11 11 12 11 11 11 10 9 10 10 9 9 7 6 6 6 7 7 6 6 4 3 2 2 2 3 3 2 0 3 2 0 1 2 2 1 1 1 2 2 3 3 3 3 4 5 4 3 2 2 3 3 2 5 6 6 5 5 6 4 3 1 4 6 1 2 3 1 1 3 2 6 5 7 9 8 7 7 7
4 11 12 13 11 13 13 12 13 12 11 10 8 7 9 9 10 9 8 7 6 7 7 7 6 6 6 6 5 5 5 2 2 2 3 1 2 2 1 0 2 1 1 1 1 2 1 2 2 2 3 3 3 4 4 4 4 3 3 3 4 5 5 5 7 5 2 4 8 7 6 2 5 3 1 2 3 3 3 6 7 8 7 8 8
8 12 18 17 16 17 16 15 13 13 12 9 9 7 9 9 10 9 8 8 7 7 7 7 7 6 5 5 5 6 6 5 4 3 2 2 3 1 1 2 0 2 2 3 2 1 2 3 3 3 3 3 3 3 3 4 4 3 3 2 3 2 4 6 6 4 4 4 3 7 7 5 4 4 8 4 3 5 7 3 3 5 6 8 9
9 11 15 17 17 15 15 14 13 12 11 12 12 9 8 8 9 9 9 8 7 8 8 7 7 7 7 6 4 5 6 6 4 3 3 1 3 1 1 0 0 0 0 1 1 1 1 1 1 3 3 3 3 4 4 5 5 5 5 6 5 4 2 3 3 5 5 6 3 4 4 7 6 8 9 5 6 6 8 7 8 5 4 6 8
9 14 17 19 18 17 16 15 13 12 12 11 10 9 8 8 8 9 10 8 9 8 8 7 6 6 6 5 5 5 6 4 5 4 3 3 3 3 2 2 3 2 2 1 0 1 2 1 2 3 2 3 3 4 4 5 5 6 6 5 4 4 4 3 4 4 5 5 5 5 5 4 4 5 7 9 7 8 9 7 4 5 6 6 5
8 10 14 16 17 17 14 14 14 11 10 11 10 10 8 9 9 10 10 8 9 10 9 9 6 6 7 6 6 7 6 6 5 4 4 3 3 4 3 4 2 4 2 2 3 2 1 1 1 2 2 2 3 4 5 4 5 5 6 6 6 6 6 5 4 4 5 5 5 5 7 7 7 7 7 8 9 7 7 10 9 10 8 7 5
9 10 11 14 12 13 13 13 12 12 10 11 10 11 10 10 10 10 9 9 10 9 10 9 7 6 7 7 6 7 7 6 8 7 6 5 5 5 4 2 2 1 2 1 2 3 2 2 1 0 1 2 3 3 4 5 6 5 5 5 5 6 6 6 5 4 4 6 6 6 7 7 7 8 8 7 7 8 6 7 8 6 8 8 4
10 10 10 12 13 13 13 13 11 11 12 13 13 12 11 10 11 12 10 10 10 10 10 9 7 7 8 7 6 7 7 7 7 7 5 6 5 4 4 4 3 3 3 3 1 1 2 2 0 1 2 2 3 3 3 3 4 6 6 6 6 5 5 6 7 6 5 5 6 5 6 6 8 7 7 6 6 6 7 8 10 7 8 5 3
9 11 10 11 13 13 16 15 14 13 14 14 13 13 11 10 10 12 12 9 10 10 11 9 8 7 7 7 7 6 7 6 6 6 6 6 6 5 5 5 4 3 3 3 3 1 1 1 0 0 1 2 2 4 4 4 4 4 5 7 8 7 5 6 7 7 6 6 5 6 6 7 7 8 8 7 7 5 6 8 8 5 6 8 3
11 11 12 12 14 14 13 15 15 15 15 14 13 13 12 11 11 12 11 9 11 11 9 10 9 8 6 6 7 6 7 6 6 5 6 6 5 6 6 4 4 3 2 1 0 0 1 1 1 1 3 3 3 4 4 4 5 5 5 5 6 7 8 7 7 7 8 8 7 6 6 6 7 8 7 8 8 8 8 7 8 9 6 5 5
12 10 10 13 16 16 15 14 14 13 14 13 14 13 12 13 12 13 13 11 11 11 10 11 9 8 7 7 7 7 6 6 5 4 5 6 5 5 4 4 4 3 2 1 0 1 1 1 1 1 2 3 3 3 3 3 4 5 5 5 6 4 7 8 7 7 8 8 8 8 7 7 7 7 7 7 7 7 7 7 6 7 9 9 5
1 4 11 9 9 11 12 11 10 11 12 12 14 14 15 13 13 12 11 10 11 12 11 10 9 9 8 7 7 6 7 7 7 5 5 6 5 4 4 3 3 2 2 1 1 1 1 1 2 3 3 3 3 3 4 3 3 4 5 5 6 6 6 7 8 9 9 8 8 8 8 7 7 7 7 7 8 7 8 8 7 9 8 9 8
5 4 8 11 12 11 9 9 11 13 13 13 13 13 13 13 13 13 12 12 11 11 11 10 10 9 8 8 8 8 7 7 6 7 5 5 5 4 4 3 2 2 2 2 1 1 0 1 1 3 4 4 4 5 4 5 5 6 6 7 6 5 5 5 6 7 8 6 7 7 7 8 7 7 7 7 7 8 8 7 8 8 7 10 8
1 7 10 9 8 10 10 11 11 12 14 13 13 12 10 9 10 12 13 13 13 11 10 9 10 8 8 9 8 7 7 6 6 6 6 6 5 5 4 4 3 3 2 2 1 1 1 3 3 4 3 4 4 4 4 5 5 6 6 6 6 5 5 6 7 7 8 8 8 9 7 8 7 7 7 7 6 7 7 7 9 9 8 8 10
2 5 10 11 12 11 11 11 12 12 11 11 11 9 10 10 10 9 9 8 8 9 10 10 10 8 7 7 7 7 7 7 6 6 6 5 5 5 4 4 4 3 3 2 2 2 3 3 4 4 4 4 4 4 3 4 4 5 5 6 6 5 6 6 7 6 7 7 8 9 8 7 7 7 7 7 8 7 7 7 7 7 8 8 8
10 4 7 10 10 11 11 11 12 12 11 10 10 11 11 10 9 9 11 9 10 11 11 10 9 9 9 9 9 7 7 6 6 6 5 5 4 5 4 4 3 3 3 3 3 3 4 4 4 4 4 4 4 4 4 4 4 5 5 5 5 5 6 6 6 8 7 8 8 7 7 7 6 8 8 7 8 8 8 8 7 7 9 8 9
5 9 8 3 11 9 9 9 9 10 10 11 10 10 10 10 10 10 9 9 10 10 10 9 8 8 9 9 8 7 7 6 6 5 6 5 4 4 4 4 4 3 3 3 3 3 4 4 4 5 4 4 4 4 4 4 4 4 5 4 5 6 7 7 5 6 7 7 8 9 9 9 9 9 8 8 8 8 8 8 9 8 8 9 8
6 5 6 8 0 11 11 12 11 12 12 12 11 11 12 11 11 9 11 10 10 11 10 9 9 8 9 8 8 7 6 7 6 6 6 5 5 4 4 4 4 3 3 4 4 4 4 4 4 4 4 3 4 4 4 4 4 4 6 5 6 6 6 7 7 7 7 7 8 9 10 9 8 10 10 9 7 8 8 9 10 8 9 9 9
6 5 5 4 5 4 4 8 10 9 10 11 12 12 12 12 12 11 11 11 9 9 9 9 9 9 8 8 8 7 8 7 7 6 6 5 5 4 4 4 4 3 4 4 4 4 4 3 3 3 3 4 4 4 4 4 4 4 5 6 7 7 7 8 8 8 7 6 7 7 8 8 9 10 9 10 9 8 7 7 8 8 9 10 9
8 7 6 5 6 3 2 4 4 3 7 10 12 12 12 12 11 11 11 10 10 10 11 10 10 10 9 9 8 8 8 7 6 5 6 5 5 4 4 4 4 3 4 4 3 3 3 3 3 4 4 4 4 4 4 3 4 4 5 6 6 6 6 7 7 8 8 8 8 7 8 7 7 9 9 9 9 11 9 7 7 7 8 9 8
6 7 8 8 5 6 2 2 1 1 4 5 8 11 11 11 12 11 11 9 9 10 11 11 10 10 9 9 8 8 8 7 6 6 6 5 5 4 4 4 4 4 4 3 3 3 3 3 3 4 4 4 4 4 4 4 4 4 5 6 7 7 7 8 8 8 7 7 7 9 9 9 8 9 10 10 9 10 10 9 8 7 7 7 8
7 6 7 7 6 8 8 0 1 5 6 6 7 7 7 8 8 7 8 9 8 10 10 10 10 10 9 9 8 8 7 7 7 6 5 5 4 4 4 4 4 4 4 3 2 1 1 1 3 3 4 5 5 5 5 5 5 5 5 6 6 6 6 6 7 8 8 8 8 8 8 8 9 9 10 9 10 10 9 10 9 9 7 6 7
10 7 8 9 10 8 9 4 4 3 2 1 1 1 1 5 6 4 6 7 7 9 10 9 9 9 9 9 8 7 7 7 6 6 5 5 4 4 4 4 3 3 3 2 1 1 2 2 4 3 3 4 4 5 5 6 6 6 6 6 6 6 6 5 5 5 6 7 8 8 8 8 9 8 9 9 9 10 9 10 8 8 9 9 8
8 9 8 5 6 8 10 9 8 7 6 5 4 5 6 7 9 10 8 9 8 10 10 9 9 9 9 8 7 6 6 6 6 6 5 5 4 4 4 4 3 3 2 2 2 2 3 2 3 3 3 4 4 4 4 5 7 8 8 8 8 9 9 10 10 10 9 8 8 8 9 9 10 12 14 12 12 12 9 11 11 9 9 10 9
7 8 10 7 7 8 9 10 9 8 8 10 8 4 3 6 9 10 10 8 8 9 10 8 9 8 8 8 8 6 7 6 6 6 5 5 4 4 4 4 4 3 3 2 2 0 2 3 3 3 3 4 4 4 7 13 12 8 7 6 7 7 8 8 9 10 10 10 10 10 10 15 15 15 15 15 14 14 15 12 11 10 11 9 9
8 7 8 9 6 6 7 8 8 4 7 7 8 7 4 4 7 7 8 7 8 8 8 8 7 7 8 8 7 6 6 6 5 5 5 4 4 4 4 4 4 2 2 1 1 3 2 2 2 1 1 2 2 3 9 11 13 15 11 8 7 8 7 8 8 9 10 10 10 10 10 12 14 14 13 13 13 13 12 14 16 16 13 11 11
11 9 9 11 11 5 4 5 8 7 5 6 9 8 7 8 7 5 6 5 6 6 7 7 7 8 8 8 7 7 6 6 6 5 5 5 5 4 4 3 2 1 1 2 3 3 2 1 1 1 2 3 3 6 10 11 12 13 13 11 9 9 8 8 9 10 10 10 11 10 10 9 10 12 12 12 13 14 14 15 15 15 16 16 13
9 10 9 8 10 7 5 6 6 8 8 8 7 6 8 9 9 9 6 4 5 4 5 7 7 8 8 7 7 7 6 6 5 6 6 5 5 4 4 2 1 1 1 3 3 1 1 0 1 2 3 4 4 7 11 12 13 14 14 13 9 10 10 10 10 11 11 11 11 11 11 10 10 14 13 12 12 12 13 15 16 17 18 18 18
6 6 8 8 10 12 12 7 8 9 7 2 5 10 12 12 12 12 11 9 9 4 5 7 7 8 7 7 7 6 6 5 5 5 4 4 4 4 3 2 1 1 2 3 1 0 0 1 2 4 4 4 5 8 11 12 12 13 13 12 9 10 10 10 10 10 10 11 11 11 12 12 11 11 11 11 10 11 11 11 11 10 11 13 13
6 7 8 8 10 11 11 12 8 8 7 5 6 4 4 6 10 12 11 10 10 7 5 7 8 7 7 7 6 6 5 5 4 4 3 3 4 3 2 2 2 2 4 2 1 0 1 2 3 4 4 5 5 10 11 12 13 13 13 11 8 8 9 10 10 10 11 11 11 11 12 13 12 12 11 12 12 12 11 11 11 12 12 13 13
9 9 10 10 11 11 11 11 10 9 7 9 9 8 9 8 8 10 11 12 10 8 7 7 7 7 8 7 7 5 5 4 4 2 3 2 2 1 0 1 2 4 3 2 0 1 2 3 4 4 5 6 5 9 10 9 10 11 12 8 9 10 11 11 11 11 11 11 12 12 13 14 14 13 14 17 16 13 14 15 15 15 13 13 14
11 13 15 14 13 13 14 11 11 9 8 6 3 4 9 11 11 12 12 12 12 9 8 7 7 8 7 7 6 5 4 4 3 3 3 3 4 2 3 2 4 3 2 1 0 2 3 4 4 4 5 5 5 7 11 12 13 15 13 9 9 9 10 11 11 11 12 12 12 12 12 12 13 13 14 14 15 14 14 16 16 16 14 13 14
12 14 14 12 11 12 13 11 12 10 5 6 8 6 1 6 10 12 11 12 12 10 9 8 8 8 7 7 6 5 4 4 5 5 5 4 4 3 3 2 5 2 1 0 2 3 4 4 5 5 5 7 7 9 12 13 14 14 12 9 7 8 10 11 12 12 11 12 14 21 21 15 14 13 13 14 14 13 14 15 15 16 16 15 15
9 10 11 10 10 12 12 10 9 8 8 8 10 8 9 7 6 9 12 12 11 11 9 9 7 7 7 7 7 6 5 5 5 5 5 4 3 3 3 4 4 3 3 3 3 4 4 5 5 6 8 10 8 9 11 12 13 13 10 6 7 8 10 11 11 13 12 12 13 14 20 19 17 16 18 18 17 14 13 13 13 14 16 17 14
9 6 7 8 8 9 9 5 0 2 6 12 10 10 10 10 7 6 9 9 8 9 9 9 8 8 7 6 6 7 7 6 5 4 4 3 1 3 5 5 3 4 2 1 1 2 4 5 5 6 8 7 9 9 9 13 13 13 12 10 8 10 12 13 12 12 13 13 13 13 15 18 21 21 22 22 21 21 17 14 12 14 15 17 8
11 7 6 4 5 7 11 9 2 6 5 3 13 12 13 13 11 6 5 10 12 12 11 8 8 7 8 8 7 6 6 4 4 2 2 1 2 6 4 4 3 2 1 1 2 2 4 6 6 7 8 9 8 10 10 13 13 14 16 14 10 11 12 12 13 14 13 14 13 13 12 16 19 20 20 21 21 21 20 16 16 17 16 12 10
9 8 3 3 4 6 11 11 6 5 9 8 7 11 11 12 10 9 8 9 11 12 10 8 8 9 8 7 6 5 4 3 3 3 2 1 3 6 5 4 3 2 1 3 4 4 5 6 7 7 8 9 10 13 11 12 14 15 16 18 12 11 12 13 15 15 14 14 13 12 12 14 19 20 20 21 21 20 21 16 17 20 20 19 17
7 6 3 3 5 5 7 6 7 4 4 3 3 8 9 12 10 11 11 10 10 10 10 9 8 8 7 6 4 4 4 3 3 3 3 2 4 5 4 3 3 1 0 3 5 5 5 7 8 8 8 8 9 9 13 12 14 17 18 18 18 15 17 16 14 16 15 15 13 13 13 17 20 20 20 20 20 21 19 18 21 20 21 21 18
8 8 5 3 6 5 3 4 6 2 1 0 5 10 8 11 14 12 12 10 10 10 9 9 8 7 6 5 5 5 5 5 4 2 0 2 4 4 4 3 2 1 1 4 6 5 5 7 9 10 9 8 8 8 11 14 14 16 17 19 19 20 20 15 14 15 15 15 15 15 15 19 20 19 20 20 20 20 17 20 20 21 21 19 14
6 8 8 3 3 9 9 6 5 8 2 3 4 8 16 16 10 10 12 12 11 10 9 8 7 6 7 7 6 5 4 3 1 0 0 4 4 4 2 2 1 1 2 4 6 4 6 7 9 10 10 9 9 9 9 11 16 17 19 19 20 21 20 21 17 14 15 16 18 23 25 24 23 23 23 20 18 20 23 22 22 21 19 13 13
8 8 6 2 4 6 11 13 9 8 8 6 8 12 14 10 9 11 11 12 11 10 7 7 7 6 7 6 5 4 2 1 1 3 3 5 5 4 2 2 1 2 3 3 4 6 6 7 8 9 10 10 10 10 10 11 11 13 15 17 19 20 20 22 22 21 25 28 28 28 30 29 27 24 19 16 15 15 18 20 21 21 15 14 13
6 8 8 9 8 8 8 10 12 12 7 6 9 11 12 10 10 10 10 11 10 9 8 7 7 6 5 5 5 3 2 2 4 3 3 4 4 4 3 1 2 4 3 2 4 5 6 7 9 9 10 10 10 10 11 11 10 10 11 12 13 14 18 20 17 15 16 16 18 18 16 18 18 21 23 21 20 18 16 16 14 13 13 14 13
6 6 10 13 10 7 6 7 12 5 6 11 13 12 11 11 10 9 9 10 9 8 8 7 7 6 6 4 5 5 5 4 4 4 3 4 3 3 2 3 4 5 3 3 4 5 6 7 9 9 10 11 11 10 11 11 12 12 12 12 12 12 12 11 12 13 14 15 15 16 17 15 14 14 14 12 13 13 14 13 12 11 12 12 14
7 8 6 8 13 9 8 18 8 7 9 10 12 12 12 12 10 10 10 9 9 7 7 7 6 6 4 4 5 4 5 4 4 4 3 4 3 2 3 3 5 5 5 3 3 5 6 6 6 8 10 12 11 11 11 14 17 19 17 14 13 12 11 12 15 20 17 15 13 13 12 12 11 11 10 10 11 11 11 12 14 12 10 9 9
4 7 11 14 12 4 2 1 4 7 11 11 10 10 11 11 11 10 9 10 8 7 5 7 6 5 4 4 3 4 4 5 5 5 4 1 2 4 6 4 4 7 9 8 6 4 5 6 7 7 7 10 12 13 18 22 22 22 22 23 21 22 22 19 20 24 17 14 13 12 11 11 10 10 10 10 10 9 9 10 10 12 11 10 9
5 8 11 10 13 3 7 7 1 5 12 13 11 10 11 10 10 9 10 8 5 6 6 5 5 4 2 1 3 4 4 6 5 5 3 1 1 2 5 7 6 8 7 8 6 9 7 8 6 9 10 14 17 19 20 21 22 21 22 23 22 22 23 22 22 15 11 11 11 11 10 9 10 10 10 10 9 9 9 9 9 9 9 11 11
Wind_Direction
176 170 164 163 162 154 149 147 149 151 151 155 154 158 161 156 148 164 186 166 146 173 163 137 175 138 55 59 97 79 73 60 34 42 57 41 35 39 44 60 79 77 39 55 36 23 12 325 285 256 161 145 134 110 298 262 287 276 180 164 220 252 269 273 268 46 358 323 317 296 280 228 214 205 218 217 204 209 241 222 205 173 191 190 189
155 159 158 155 157 154 148 150 151 151 165 159 160 167 162 155 156 179 185 176 167 168 160 128 161 165 140 126 126 88 78 87 69 21 59 40 30 32 43 51 52 39 35 52 107 56 351 3 10 334 241 130 130 157 200 240 225 251 203 255 205 236 272 253 260 256 277 226 306 332 334 326 255 220 212 228 225 214 208 233 237 201 190 186 189
155 168 157 161 161 158 155 157 163 161 164 163 166 159 160 157 164 174 187 172 178 156 129 121 102 106 114 108 121 87 79 143 160 191 127 183 22 7 34 60 50 23 354 10 29 325 309 340 321 345 65 134 130 167 187 203 200 198 211 222 242 213 233 246 233 188 232 175 145 86 285 285 321 284 271 243 228 223 215 211 225 224 203 191 183
159 163 164 164 165 169 158 158 164 159 162 166 167 166 161 161 167 167 181 174 168 148 120 116 110 103 99 121 97 128 166 115 74 8 68 97 95 79 55 62 49 24 6 9 21 30 49 40 19 5 8 76 130 172 207 218 209 198 190 222 227 261 250 297 172 223 216 151 238 204 219 151 273 264 236 245 219 222 220 223 219 228 220 193 182
156 171 162 160 163 170 171 167 157 158 169 173 174 171 166 167 165 164 173 170 165 133 130 124 106 75 68 50 51 48 37 67 55 38 34 110 69 67 97 80 42 42 31 5 358 23 20 19 22 16 18 3 28 57 186 244 241 209 188 187 199 210 255 250 262 217 234 243 217 119 108 255 217 241 238 264 241 236 231 223 219 227 228 219 187
165 172 169 169 169 168 165 162 163 169 172 182 179 171 162 161 158 161 164 160 156 142 141 135 141 137 126 130 111 113 99 128 127 156 59 90 144 245 22 104 77 12 353 323 329 6 9 2 14 14 360 354 353 351 344 344 339 318 247 190 200 205 207 225 251 263 241 255 298 250 195 195 187 143 71 268 293 224 227 227 222 223 228 219 214
164 140 165 163 160 162 167 168 172 172 183 176 173 172 163 158 159 162 163 165 158 155 147 140 144 152 165 172 180 164 165 215 192 163 149 191 88 74 39 67 147 176 290 289 10 352 353 346 8 18 9 351 334 350 336 316 302 279 274 246 217 199 188 225 236 249 267 196 231 255 291 4 17 28 324 335 328 317 264 235 242 231 223 223 219
169 144 164 166 168 167 172 176 174 179 178 170 174 173 167 164 159 166 165 164 167 157 154 157 160 175 173 182 184 170 166 171 172 168 161 131 115 195 263 267 255 160 211 282 289 332 28 6 1 352 356 340 354 342 324 316 325 334 338 326 311 275 201 217 241 223 210 252 203 242 252 267 246 270 248 233 273 300 301 307 269 252 237 228 223
162 148 158 166 170 171 170 175 181 174 168 174 178 176 168 167 164 165 165 162 170 162 161 173 172 176 176 170 151 148 159 164 162 156 161 159 137 231 75 113 327 309 152 101 291 285 325 309 7 12 12 2 8 356 347 340 332 325 326 328 322 306 261 242 238 234 213 241 230 248 229 227 212 214 248 244 235 241 265 269 283 280 255 252 239
180 158 160 167 172 175 175 174 174 175 176 173 169 166 166 171 169 168 171 163 171 168 168 178 182 169 160 165 141 154 153 163 150 167 173 160 156 199 196 255 258 231 241 194 43 51 18 14 17 15 6 351 345 339 335 337 333 330 320 309 298 303 292 269 233 238 234 246 215 225 221 228 229 238 234 237 243 230 244 250 254 278 275 261 238
175 158 162 167 173 174 171 170 175 172 169 164 165 171 170 175 174 175 176 165 169 173 168 186 183 171 168 172 161 170 167 160 157 171 170 168 174 202 206 229 223 180 194 196 192 222 292 5 341 311 330 325 322 316 313 307 310 311 311 317 314 302 292 285 278 253 244 244 237 232 238 221 228 227 231 223 220 227 224 242 253 255 259 282 272
169 156 160 159 162 170 170 174 170 170 162 164 169 172 175 177 175 176 177 169 172 170 174 184 180 179 171 176 172 178 166 166 165 178 178 181 182 195 217 188 226 213 193 181 221 219 202 226 286 327 312 321 296 281 284 295 299 306 310 314 314 317 312 300 291 281 255 246 240 231 244 242 233 233 238 227 214 231 226 248 245 249 258 249 274
163 167 155 160 159 161 173 175 170 165 168 170 172 173 175 174 176 177 183 174 171 172 175 182 179 178 176 175 177 174 168 171 163 178 182 176 178 179 188 207 232 222 231 206 277 163 153 144 150 307 314 304 310 325 318 319 319 318 314 306 304 302 296 301 297 286 274 258 250 237 242 250 249 243 239 231 218 219 210 236 246 226 243 266 262
162 167 163 164 167 166 169 171 173 174 173 172 170 172 172 177 176 180 187 175 171 171 176 178 184 181 177 174 177 165 174 169 176 174 181 172 173 185 197 192 181 188 185 182 204 166 120 161 156 234 266 313 323 324 324 324 327 317 311 310 304 297 300 299 298 299 295 282 268 252 234 236 248 257 259 250 239 225 229 227 245 239 219 243 256
157 171 173 170 170 171 170 172 175 177 175 170 171 169 171 173 176 183 183 179 172 175 173 179 181 182 179 177 178 170 170 173 183 176 171 170 182 185 196 185 170 202 172 230 187 67 266 316 300 295 306 302 306 303 301 305 306 307 301 295 294 299 296 291 286 293 294 291 283 266 254 243 238 238 235 251 252 240 231 223 212 232 250 235 236
157 171 183 177 175 178 175 174 174 173 171 170 168 170 170 178 180 183 185 179 176 173 178 178 179 178 177 175 180 171 171 171 179 175 174 176 183 167 178 167 170 161 178 141 213 169 176 206 248 273 273 278 272 271 277 280 287 289 289 294 298 301 304 302 297 296 294 291 283 274 260 249 238 239 236 238 237 241 252 252 217 213 224 250 229
301 169 171 172 177 174 171 169 166 165 167 170 173 172 177 175 179 182 185 179 177 179 178 175 172 174 183 178 174 173 173 177 181 186 179 184 167 168 155 172 154 155 185 160 156 146 193 217 252 266 268 257 261 264 264 262 264 275 282 283 284 292 289 288 292 289 282 278 277 272 264 257 243 235 238 238 239 234 232 237 243 236 208 228 243
147 131 159 161 170 169 165 164 167 170 170 173 173 177 176 177 177 181 181 182 182 178 177 173 172 176 181 182 181 177 177 180 177 185 181 166 167 148 143 135 166 187 174 208 191 222 200 245 236 256 255 260 258 258 254 254 255 256 256 260 262 265 272 283 285 284 283 283 275 275 268 267 258 243 236 228 228 232 223 227 237 241 213 228 232
140 121 153 153 157 171 162 172 174 173 174 171 174 173 175 176 181 182 184 186 182 179 174 173 172 179 181 181 179 178 178 177 179 175 173 167 166 163 155 180 192 198 179 162 162 210 256 267 261 259 254 251 251 251 251 253 245 246 248 251 253 250 257 271 278 282 284 283 283 282 280 271 263 253 248 241 233 230 231 220 229 234 236 225 228
258 125 157 162 171 173 173 169 172 172 173 176 171 169 172 177 181 187 187 182 173 170 170 174 179 173 176 174 180 178 176 175 178 166 169 169 169 161 170 169 191 178 169 172 185 208 224 241 253 257 259 263 266 267 262 268 273 267 265 260 256 249 252 259 269 273 281 281 278 276 276 274 269 261 249 244 240 235 232 231 228 235 243 243 243
357 322 143 169 180 181 179 177 174 174 173 174 173 173 179 177 181 180 179 176 175 176 174 177 171 175 169 178 180 177 179 174 174 173 164 170 164 164 171 183 170 184 176 201 211 223 231 232 239 242 245 252 261 269 267 265 272 275 273 266 265 259 257 258 259 269 274 282 287 289 290 288 284 271 259 249 241 234 231 230 225 225 229 229 231
19 9 323 159 183 188 187 181 177 170 177 180 179 178 178 179 179 177 178 178 175 176 177 174 174 173 174 177 178 175 174 173 175 176 174 170 168 169 177 160 171 204 176 202 213 227 233 240 245 251 253 255 254 259 265 259 261 276 284 285 288 282 273 263 255 260 267 276 284 289 291 296 301 297 290 266 246 237 230 229 230 224 227 230 220
354 7 351 350 356 201 185 188 183 183 185 183 180 180 179 178 176 177 177 184 178 179 176 169 169 171 177 175 171 176 173 177 173 177 175 172 172 177 170 174 188 210 208 203 221 225 234 241 247 247 245 253 257 263 260 258 268 274 278 281 277 277 275 276 273 265 260 261 271 276 281 286 289 292 293 291 277 253 235 229 229 222 227 229 221
342 343 336 338 17 338 250 193 192 190 188 183 181 180 178 177 178 176 182 183 175 170 168 165 168 175 173 169 175 174 173 175 177 175 173 174 170 176 179 179 201 195 211 230 220 230 228 232 247 263 264 261 266 262 263 255 262 272 282 282 282 279 277 274 271 270 265 260 257 263 268 274 279 282 288 294 297 285 263 250 236 226 225 228 226
342 333 323 328 334 10 10 310 272 245 199 178 178 178 177 178 176 177 182 181 171 167 166 171 172 172 172 172 175 172 174 176 173 170 169 170 171 181 183 194 198 214 225 226 248 240 254 260 259 261 269 267 259 256 251 255 254 260 271 279 280 279 279 282 283 283 280 271 262 257 261 263 271 278 283 285 286 289 287 273 255 248 232 224 225
318 319 325 320 297 293 280 127 167 167 205 203 186 179 178 177 181 176 175 176 171 167 170 170 172 170 173 173 173 170 174 173 171 167 170 170 176 180 193 205 198 215 227 230 231 251 243 264 274 277 277 278 276 273 271 267 265 263 265 269 273 275 279 281 282 281 281 281 278 271 264 258 260 266 273 277 281 285 289 285 281 269 259 248 230
298 286 283 285 288 279 271 92 175 196 189 179 183 184 177 175 175 176 176 174 166 167 170 170 170 169 170 173 173 172 167 168 168 171 169 170 175 185 184 204 210 206 219 238 245 251 275 261 280 286 289 292 296 293 288 278 271 264 262 263 266 271 273 276 278 280 281 283 282 279 274 269 264 258 260 265 276 283 286 289 288 283 277 264 261
298 294 287 281 278 270 263 210 138 222 242 75 353 353 190 172 178 179 174 172 166 166 168 170 167 168 170 173 170 165 162 163 168 165 170 175 179 186 198 208 199 206 219 218 227 251 276 297 306 335 346 351 345 339 326 316 307 308 306 300 295 291 288 285 290 295 302 303 304 304 301 293 283 271 262 261 260 270 280 284 291 309 311 305 283
283 289 289 274 263 266 257 243 186 171 142 144 153 197 213 200 180 185 177 186 173 166 168 167 166 169 173 165 158 159 158 160 161 163 168 173 177 189 193 203 204 214 192 204 234 257 280 2 20 24 6 3 356 338 332 332 337 329 325 318 314 308 306 301 298 296 294 293 292 291 291 291 296 307 310 305 293 281 268 273 280 283 286 293 299
324 316 310 321 325 307 285 256 234 179 155 156 172 190 194 200 189 183 175 177 160 166 162 161 165 167 160 157 157 154 160 159 155 161 165 168 180 192 202 205 207 198 215 232 231 333 78 83 42 15 14 6 351 334 327 330 328 323 319 314 310 309 307 305 301 299 294 292 289 289 286 288 291 292 294 295 291 288 283 274 273 277 277 279 279
319 316 314 312 313 319 312 304 288 250 166 154 164 181 194 197 197 172 163 168 163 157 157 157 158 155 153 152 152 156 152 155 161 154 164 172 192 202 202 203 203 207 211 229 102 90 73 72 70 52 2 332 315 304 305 307 307 310 312 307 306 303 302 299 297 294 293 291 288 286 288 288 287 287 286 287 291 290 289 290 286 275 263 258 274
313 310 313 312 311 308 287 276 282 274 241 192 171 167 157 166 151 139 132 149 136 146 157 152 147 146 146 146 146 146 145 156 152 169 179 195 199 197 193 182 168 173 202 120 84 106 121 102 53 10 320 290 276 275 280 281 286 290 293 296 297 296 294 291 291 291 290 292 290 289 283 282 280 282 284 284 285 286 289 289 287 287 285 269 240
309 324 331 327 324 322 301 280 266 264 242 213 173 152 153 158 146 144 128 111 121 159 153 145 142 141 140 138 140 145 153 157 175 185 194 191 187 170 156 139 180 209 138 99 146 101 55 242 326 297 276 266 263 266 271 275 276 277 279 283 286 287 288 287 286 284 284 284 285 284 284 280 280 278 278 278 279 281 282 284 286 288 287 281 275
326 318 316 319 318 315 308 280 256 253 245 265 265 181 166 157 151 142 142 145 145 185 155 141 136 139 140 140 143 144 157 173 179 179 175 170 152 164 169 182 180 185 117 118 103 110 252 287 252 259 264 262 268 272 274 276 275 275 275 275 277 280 282 282 281 278 278 278 277 278 278 277 275 276 275 277 276 277 278 280 283 283 282 288 294
313 312 309 308 306 301 298 297 277 255 245 171 178 191 132 122 140 140 142 146 143 177 161 141 136 140 140 141 145 146 155 162 161 158 148 148 149 159 179 205 203 161 125 137 158 284 255 252 263 263 267 272 270 275 278 281 283 284 285 288 287 285 283 282 281 281 278 277 275 273 271 272 272 269 267 269 274 273 274 273 273 272 276 280 281
323 316 311 307 307 301 293 288 278 265 205 178 178 167 150 151 150 144 149 149 155 159 152 139 134 137 138 137 131 134 142 149 154 139 131 138 139 143 163 275 88 93 111 117 145 186 244 263 268 275 282 285 284 287 293 297 296 294 289 285 282 279 279 278 277 275 274 272 273 272 273 271 270 268 263 262 263 269 271 271 268 267 269 270 272
330 326 315 306 298 291 284 277 276 260 214 177 155 169 159 158 154 159 160 152 145 153 150 143 137 132 129 129 124 125 136 143 139 114 105 101 84 53 28 67 84 101 99 60 20 275 285 295 300 301 294 288 289 289 293 294 295 294 293 286 284 282 282 283 280 280 274 271 266 265 263 266 265 263 261 253 252 256 265 264 264 264 263 264 266
324 314 307 302 302 296 283 269 264 245 199 156 146 133 139 173 154 157 145 140 145 147 149 141 139 132 127 126 126 116 99 82 81 87 93 82 78 75 57 81 107 101 69 261 297 335 324 318 307 300 291 294 294 297 300 299 295 293 290 291 290 291 290 289 290 285 283 277 272 269 267 265 262 261 257 253 252 250 257 258 261 262 260 261 263
313 312 311 312 313 310 292 270 245 238 204 179 157 159 157 152 144 150 139 140 153 145 144 137 132 124 114 104 106 113 120 111 93 100 97 86 80 62 91 88 94 83 45 16 8 351 325 313 298 287 295 302 299 299 298 297 295 293 295 291 293 293 293 291 291 289 284 282 278 271 266 261 260 259 256 255 252 247 254 256 258 259 258 256 258
314 313 305 300 309 322 298 275 238 269 226 176 159 142 117 108 106 115 135 139 119 109 112 115 114 110 110 104 93 86 86 93 102 98 96 103 100 71 82 87 81 87 70 21 8 350 317 299 293 294 294 290 291 288 288 291 295 297 302 305 300 298 294 292 287 284 287 283 281 279 270 260 254 252 251 249 248 243 248 252 254 256 257 258 262
307 297 297 300 326 339 334 308 310 76 37 102 127 133 131 136 142 148 122 119 116 110 104 109 111 105 99 101 107 116 121 130 134 139 151 146 102 107 120 109 112 88 71 355 325 300 286 286 284 285 286 286 283 285 283 282 286 292 295 298 294 287 286 285 287 286 285 286 284 280 277 271 263 254 247 243 240 238 238 243 246 250 249 263 269
288 276 292 315 323 350 332 318 319 60 71 39 74 112 113 115 126 132 138 117 109 111 116 113 108 108 115 115 115 122 127 148 153 139 106 103 112 127 135 135 144 135 60 321 305 291 286 285 284 284 286 285 285 284 287 285 285 288 287 284 283 279 280 286 285 283 281 277 275 273 271 267 264 257 250 244 239 236 235 238 245 248 254 252 251
304 303 309 332 331 345 346 328 325 23 69 67 83 123 138 136 129 128 125 119 113 114 115 112 111 109 104 114 122 124 113 100 108 121 131 147 131 127 139 145 135 107 340 291 286 287 295 294 293 292 289 288 288 288 285 287 285 283 281 280 276 277 278 279 278 279 276 275 272 270 269 268 264 259 252 245 241 239 238 240 243 246 248 248 249
299 305 303 358 336 325 338 349 317 336 293 299 175 162 149 124 129 132 122 117 109 105 105 99 92 91 103 100 104 103 109 110 118 121 154 116 132 146 152 153 149 161 247 279 287 300 302 296 301 304 301 296 293 287 286 283 284 283 284 282 279 276 274 273 272 274 276 273 274 272 273 273 272 267 257 247 241 238 240 242 242 242 244 244 244
298 313 307 18 333 312 313 314 285 285 252 167 169 139 127 125 137 124 114 109 106 99 90 94 103 110 104 106 105 112 115 130 137 142 81 120 158 149 139 195 135 269 271 279 291 298 292 298 304 305 306 303 300 296 293 291 290 290 287 284 281 278 275 273 274 273 271 273 271 272 272 270 267 265 262 261 255 248 244 244 243 241 240 240 238
323 319 310 343 270 274 290 288 271 239 234 237 167 136 118 129 125 115 112 106 100 97 97 107 120 113 120 122 115 117 133 146 151 152 145 153 159 163 158 205 189 255 264 278 286 290 294 298 304 305 307 306 305 303 298 295 295 292 290 286 284 282 280 277 273 272 272 271 271 270 268 267 264 260 256 251 247 244 241 242 244 243 241 238 235
301 294 296 289 275 277 264 262 269 257 174 179 119 116 122 124 115 113 109 106 104 108 114 116 106 111 113 126 131 155 128 142 155 108 112 138 141 144 139 175 214 246 265 272 281 290 292 304 314 312 309 308 305 303 300 299 300 299 298 294 291 286 281 277 275 273 271 270 268 266 263 260 256 253 248 246 245 244 241 240 239 238 236 232 230
306 294 281 270 262 229 193 228 249 215 117 126 119 122 121 117 112 107 103 104 110 114 121 122 119 114 128 146 159 168 143 163 147 130 103 107 147 143 157 209 232 234 221 261 272 281 289 314 323 315 312 310 308 307 306 307 307 305 299 294 288 282 279 272 274 275 275 274 273 271 266 260 258 254 249 239 237 235 234 234 232 229 223 220 220
276 288 279 250 253 241 186 196 216 130 131 118 124 126 125 119 115 107 105 102 108 123 132 123 123 122 165 175 171 141 168 160 129 106 144 168 169 196 194 231 236 189 178 204 241 266 275 292 300 310 315 314 311 311 310 306 303 301 299 297 294 287 281 279 276 276 278 276 271 264 257 256 248 247 240 234 229 225 224 223 224 222 217 210 205
326 320 333 332 315 115 344 270 136 124 116 121 123 123 123 119 114 111 110 110 122 130 116 120 141 156 185 176 151 149 165 129 117 106 85 12 305 169 175 186 244 226 195 194 199 223 274 313 313 301 298 306 310 305 304 305 305 303 301 298 294 292 289 284 281 279 274 273 269 262 254 246 244 237 237 232 229 220 217 214 215 214 215 220 219
353 336 326 314 308 196 97 73 276 113 121 126 129 126 118 117 117 122 119 127 129 105 96 126 142 168 168 131 130 163 141 117 111 109 131 140 333 341 251 227 213 204 201 221 233 256 318 331 309 313 310 303 299 303 308 309 309 308 307 306 305 303 301 298 294 290 279 269 263 253 248 239 238 234 232 233 225 218 211 208 212 209 213 218 223